Location: Düngen
(52.0952°N, 10.0219°E)
Time: 15:13:04
(UTC+00:00)

Cosmos 1066 Rocket - Pass Details

Date: 11 March 2026
Orbit: 797 x 893 km, 81.2° (Epoch: 14 April)

Event Time Altitude Azimuth Distance (km) Brightness Sun altitude
Rises 18:40:57 0° 347° (NNW) 3,405 7.7 -13.6°
Reaches altitude 10° 18:43:25 10° 350° (N) 2,451 6.9 -14.0°
Maximum altitude 18:48:57 74° 75° (ENE) 856 4.1 -14.8°
Drops below altitude 10° 18:54:19 10° 161° (SSE) 2,381 6.2 -15.6°
Enters shadow 18:55:38 - 162° (SSE) 2,891 6.7 -15.8°
